Location: La Pernelle
(49.6188°N, 1.2999°W)
Time: 14:22:11
(UTC+00:00)

Cosmos 1455 Rocket - Pass Details

Date: 12 June 2021
Orbit: 604 x 630 km, 82.5° (Epoch: 04 August)

Event Time Altitude Azimuth Distance (km) Brightness Sun altitude
Rises 22:34:05 0° 343° (NNW) 2,920 8.5 -14.4°
Reaches altitude 10° 22:36:26 10° 335° (NNW) 2,011 7.1 -14.5°
Maximum altitude 22:40:32 37° 268° (W) 975 4.2 -14.8°
Enters shadow 22:43:50 15° 206° (SSW) 1,713 4.9 -15.0°
